Total_Precipitation_Accumulation
0.04 0.03 0.02 0.01 0.01 0.00 0.00 0.00 0.00 0.00 0.00 0.00 0.00 0.00 0.00 0.00 0.00 0.00 0.00 0.00 0.01 0.01 0.04 0.11 0.16 0.18 0.21 0.20 0.16 0.14 0.13 0.12 0.12 0.12 0.11 0.12 0.13 0.14 0.15 0.16 0.19 0.23 0.25 0.24 0.22 0.21 0.22 0.25 0.30
0.05 0.03 0.02 0.02 0.01 0.00 0.00 0.00 0.00 0.00 0.00 0.00 0.00 0.00 0.00 0.00 0.00 0.00 0.00 0.00 0.00 0.01 0.02 0.06 0.14 0.17 0.19 0.17 0.14 0.13 0.12 0.11 0.11 0.10 0.10 0.10 0.11 0.11 0.12 0.14 0.19 0.24 0.30 0.34 0.31 0.25 0.25 0.31 0.32
0.07 0.05 0.03 0.02 0.01 0.00 0.00 0.00 0.00 0.00 0.00 0.00 0.00 0.00 0.00 0.00 0.00 0.00 0.00 0.00 0.00 0.00 0.02 0.06 0.13 0.17 0.18 0.17 0.15 0.13 0.12 0.11 0.10 0.09 0.09 0.09 0.09 0.09 0.09 0.10 0.14 0.20 0.25 0.30 0.31 0.29 0.30 0.30 0.27
0.09 0.09 0.05 0.02 0.00 0.00 0.00 0.00 0.00 0.00 0.00 0.00 0.00 0.00 0.00 0.00 0.00 0.00 0.00 0.00 0.00 0.01 0.02 0.06 0.13 0.17 0.18 0.17 0.16 0.14 0.12 0.11 0.11 0.11 0.11 0.11 0.09 0.08 0.07 0.07 0.08 0.10 0.15 0.22 0.25 0.26 0.28 0.31 0.29
0.12 0.12 0.07 0.02 0.00 0.00 0.00 0.00 0.00 0.00 0.00 0.00 0.00 0.00 0.00 0.00 0.00 0.00 0.00 0.00 0.00 0.01 0.02 0.06 0.14 0.18 0.18 0.18 0.17 0.16 0.14 0.13 0.12 0.13 0.14 0.13 0.11 0.09 0.08 0.08 0.08 0.06 0.07 0.12 0.18 0.23 0.26 0.31 0.32
0.14 0.15 0.08 0.02 0.00 0.00 0.00 0.00 0.00 0.00 0.00 0.00 0.00 0.00 0.00 0.00 0.00 0.00 0.00 0.00 0.00 0.01 0.03 0.07 0.15 0.18 0.18 0.17 0.18 0.18 0.17 0.16 0.15 0.16 0.16 0.15 0.13 0.12 0.11 0.12 0.11 0.08 0.07 0.08 0.10 0.15 0.22 0.25 0.27
0.13 0.12 0.06 0.01 0.00 0.00 0.00 0.00 0.00 0.00 0.00 0.00 0.00 0.00 0.00 0.00 0.00 0.00 0.00 0.00 0.01 0.01 0.04 0.07 0.13 0.16 0.17 0.17 0.18 0.18 0.18 0.18 0.17 0.18 0.16 0.13 0.10 0.11 0.14 0.15 0.12 0.10 0.10 0.09 0.07 0.09 0.12 0.15 0.19
0.15 0.15 0.08 0.03 0.01 0.00 0.00 0.00 0.00 0.00 0.00 0.00 0.00 0.00 0.00 0.00 0.00 0.00 0.01 0.01 0.02 0.03 0.04 0.07 0.11 0.12 0.13 0.14 0.17 0.18 0.19 0.19 0.18 0.18 0.15 0.10 0.08 0.09 0.11 0.10 0.09 0.10 0.11 0.10 0.08 0.09 0.09 0.09 0.10
0.22 0.22 0.09 0.03 0.01 0.01 0.00 0.00 0.00 0.00 0.00 0.00 0.00 0.00 0.00 0.00 0.00 0.01 0.02 0.03 0.04 0.05 0.06 0.09 0.11 0.11 0.11 0.11 0.13 0.17 0.19 0.18 0.17 0.15 0.12 0.09 0.06 0.06 0.06 0.05 0.05 0.08 0.09 0.08 0.09 0.10 0.09 0.07 0.04
0.27 0.23 0.08 0.02 0.02 0.02 0.01 0.01 0.00 0.00 0.00 0.00 0.00 0.00 0.00 0.00 0.01 0.01 0.01 0.02 0.03 0.05 0.07 0.09 0.10 0.10 0.10 0.09 0.11 0.15 0.14 0.14 0.13 0.11 0.10 0.09 0.08 0.06 0.05 0.05 0.06 0.08 0.09 0.09 0.11 0.11 0.08 0.07 0.06
0.18 0.15 0.07 0.04 0.03 0.04 0.04 0.03 0.02 0.01 0.01 0.00 0.00 0.00 0.00 0.01 0.02 0.01 0.01 0.01 0.01 0.03 0.05 0.07 0.09 0.10 0.09 0.08 0.09 0.12 0.12 0.13 0.13 0.13 0.14 0.17 0.17 0.14 0.13 0.14 0.14 0.11 0.10 0.14 0.17 0.17 0.15 0.18 0.19
0.13 0.09 0.07 0.06 0.05 0.06 0.06 0.06 0.04 0.02 0.01 0.00 0.00 0.00 0.01 0.02 0.02 0.02 0.01 0.01 0.02 0.03 0.05 0.06 0.09 0.11 0.09 0.07 0.07 0.09 0.09 0.10 0.12 0.13 0.14 0.17 0.19 0.19 0.18 0.19 0.19 0.16 0.16 0.18 0.22 0.24 0.23 0.21 0.20
0.13 0.10 0.08 0.08 0.07 0.06 0.06 0.06 0.04 0.03 0.01 0.01 0.01 0.01 0.01 0.01 0.02 0.02 0.03 0.02 0.03 0.04 0.05 0.06 0.08 0.11 0.10 0.08 0.07 0.07 0.07 0.07 0.07 0.08 0.08 0.09 0.11 0.13 0.13 0.12 0.11 0.12 0.13 0.14 0.16 0.17 0.19 0.20 0.19
0.13 0.12 0.10 0.08 0.09 0.08 0.06 0.06 0.04 0.02 0.01 0.01 0.01 0.01 0.01 0.01 0.02 0.02 0.03 0.04 0.04 0.04 0.05 0.06 0.08 0.11 0.11 0.09 0.07 0.06 0.06 0.05 0.04 0.05 0.04 0.04 0.05 0.05 0.04 0.04 0.03 0.03 0.04 0.05 0.05 0.05 0.06 0.09 0.13
0.13 0.16 0.14 0.09 0.08 0.09 0.09 0.07 0.04 0.01 0.01 0.01 0.01 0.01 0.01 0.01 0.02 0.02 0.02 0.04 0.04 0.04 0.05 0.06 0.07 0.09 0.11 0.10 0.08 0.06 0.06 0.05 0.05 0.03 0.03 0.02 0.02 0.02 0.02 0.02 0.02 0.01 0.01 0.01 0.02 0.02 0.02 0.03 0.07
0.21 0.24 0.20 0.10 0.07 0.09 0.15 0.10 0.02 0.01 0.01 0.01 0.01 0.01 0.01 0.01 0.01 0.02 0.02 0.03 0.05 0.06 0.06 0.06 0.07 0.09 0.10 0.10 0.10 0.07 0.06 0.06 0.05 0.04 0.03 0.03 0.02 0.02 0.02 0.02 0.03 0.02 0.02 0.02 0.03 0.03 0.04 0.06 0.07
0.30 0.29 0.17 0.09 0.08 0.10 0.15 0.10 0.02 0.02 0.02 0.01 0.01 0.01 0.01 0.01 0.01 0.02 0.02 0.03 0.04 0.05 0.07 0.07 0.06 0.07 0.10 0.11 0.09 0.08 0.07 0.07 0.07 0.05 0.04 0.04 0.03 0.02 0.02 0.03 0.04 0.04 0.05 0.05 0.05 0.04 0.07 0.09 0.11
0.29 0.19 0.12 0.07 0.08 0.11 0.12 0.09 0.03 0.02 0.02 0.02 0.01 0.00 0.01 0.01 0.01 0.02 0.02 0.03 0.04 0.05 0.06 0.08 0.07 0.07 0.09 0.13 0.12 0.10 0.09 0.08 0.07 0.06 0.05 0.04 0.04 0.04 0.04 0.04 0.04 0.04 0.05 0.06 0.07 0.08 0.10 0.11 0.13
0.24 0.19 0.14 0.08 0.07 0.11 0.11 0.07 0.04 0.02 0.02 0.02 0.01 0.01 0.01 0.00 0.00 0.01 0.03 0.04 0.05 0.06 0.07 0.08 0.09 0.09 0.09 0.13 0.12 0.10 0.08 0.07 0.06 0.05 0.04 0.04 0.04 0.04 0.05 0.05 0.04 0.05 0.06 0.07 0.07 0.07 0.07 0.07 0.08
0.29 0.28 0.17 0.11 0.10 0.13 0.11 0.07 0.04 0.02 0.02 0.01 0.01 0.01 0.00 0.01 0.00 0.01 0.03 0.04 0.05 0.06 0.07 0.07 0.08 0.09 0.08 0.09 0.07 0.05 0.04 0.04 0.04 0.04 0.04 0.03 0.03 0.03 0.04 0.04 0.04 0.04 0.04 0.03 0.03 0.04 0.05 0.04 0.03
0.28 0.26 0.18 0.14 0.11 0.14 0.14 0.09 0.04 0.02 0.01 0.00 0.00 0.00 0.00 0.00 0.01 0.01 0.02 0.03 0.05 0.05 0.06 0.07 0.08 0.07 0.08 0.09 0.09 0.08 0.06 0.06 0.05 0.04 0.03 0.02 0.02 0.03 0.03 0.03 0.03 0.03 0.02 0.03 0.03 0.03 0.06 0.07 0.05
0.28 0.18 0.16 0.17 0.22 0.23 0.18 0.16 0.03 0.01 0.01 0.00 0.00 0.00 0.00 0.00 0.01 0.01 0.01 0.02 0.04 0.05 0.06 0.07 0.08 0.08 0.07 0.09 0.09 0.08 0.06 0.04 0.02 0.02 0.02 0.02 0.03 0.03 0.03 0.03 0.03 0.03 0.03 0.04 0.04 0.04 0.06 0.10 0.11
0.21 0.17 0.20 0.22 0.28 0.31 0.20 0.20 0.05 0.01 0.01 0.00 0.00 0.00 0.01 0.01 0.01 0.01 0.01 0.01 0.03 0.05 0.06 0.07 0.08 0.09 0.09 0.09 0.08 0.07 0.05 0.04 0.03 0.02 0.02 0.02 0.02 0.02 0.03 0.03 0.03 0.03 0.04 0.05 0.05 0.06 0.08 0.11 0.15
0.21 0.29 0.41 0.44 0.54 0.61 0.22 0.17 0.07 0.01 0.02 0.01 0.00 0.00 0.01 0.01 0.01 0.01 0.01 0.01 0.02 0.04 0.07 0.08 0.08 0.09 0.11 0.10 0.07 0.05 0.05 0.05 0.05 0.04 0.03 0.02 0.02 0.03 0.02 0.03 0.03 0.04 0.04 0.05 0.07 0.08 0.10 0.11 0.14
0.43 0.67 1.02 1.12 1.10 0.62 0.10 0.10 0.07 0.03 0.02 0.01 0.01 0.01 0.01 0.01 0.01 0.01 0.01 0.02 0.02 0.03 0.06 0.07 0.08 0.08 0.10 0.12 0.09 0.04 0.03 0.04 0.05 0.05 0.04 0.03 0.04 0.04 0.03 0.03 0.04 0.05 0.06 0.07 0.09 0.13 0.14 0.14 0.17
0.49 0.61 0.79 0.80 0.56 0.20 0.04 0.06 0.05 0.03 0.01 0.01 0.00 0.01 0.01 0.01 0.01 0.01 0.01 0.01 0.02 0.03 0.04 0.06 0.07 0.08 0.08 0.10 0.11 0.06 0.03 0.03 0.03 0.04 0.05 0.05 0.05 0.04 0.03 0.04 0.04 0.05 0.07 0.10 0.13 0.16 0.18 0.20 0.22
0.44 0.46 0.38 0.46 0.34 0.18 0.09 0.04 0.04 0.03 0.01 0.01 0.00 0.00 0.01 0.01 0.01 0.01 0.01 0.01 0.01 0.02 0.03 0.04 0.06 0.07 0.07 0.07 0.09 0.10 0.06 0.03 0.02 0.03 0.04 0.05 0.04 0.03 0.04 0.05 0.07 0.09 0.10 0.12 0.14 0.18 0.20 0.23 0.27
0.40 0.45 0.50 0.70 0.57 0.29 0.11 0.04 0.04 0.05 0.03 0.01 0.01 0.01 0.01 0.01 0.01 0.01 0.01 0.01 0.01 0.02 0.03 0.03 0.05 0.06 0.06 0.05 0.06 0.08 0.08 0.05 0.02 0.03 0.03 0.04 0.04 0.04 0.04 0.06 0.09 0.13 0.16 0.18 0.19 0.22 0.22 0.25 0.27
0.39 0.53 0.72 0.74 0.49 0.31 0.15 0.07 0.06 0.05 0.04 0.02 0.02 0.02 0.01 0.01 0.01 0.01 0.01 0.01 0.01 0.02 0.02 0.03 0.05 0.06 0.07 0.06 0.05 0.06 0.07 0.07 0.05 0.04 0.04 0.04 0.05 0.05 0.07 0.08 0.11 0.15 0.20 0.24 0.27 0.28 0.30 0.31 0.30
0.33 0.43 0.53 0.68 0.51 0.22 0.14 0.08 0.05 0.04 0.03 0.03 0.02 0.02 0.02 0.01 0.01 0.01 0.01 0.01 0.01 0.01 0.03 0.04 0.05 0.06 0.06 0.06 0.06 0.05 0.05 0.06 0.07 0.08 0.08 0.07 0.08 0.09 0.11 0.14 0.17 0.22 0.25 0.28 0.34 0.38 0.39 0.44 0.44